EW3714 Weather Reports


Display with metric or nautical units.
time (UTC)temp
F
wind
direction
speed
MPH
gust
MPH
rain 1hr
in
rain 24hr
in
rain mn
in
humidity
%
barometer
mb
20260507214614 69 40 2.0 3.0 0.00 0.00 0.00 61 1016.5
20260507214110 68 97 1.0 2.0 0.00 0.00 0.00 63 1016.6
20260507213607 69 97 2.0 3.0 0.00 0.00 0.00 62 1016.8
20260507213104 70 120 2.0 3.0 0.00 0.00 0.00 59 1016.6
20260507212600 70 82 2.0 2.0 0.00 0.00 0.00 60 1016.5
20260507212057 69 25 2.0 2.0 0.00 0.00 0.00 61 1016.5
20260507211553 70 30 0.0 3.0 0.00 0.00 0.00 60 1016.4
20260507211049 69 85 1.0 3.0 0.00 0.00 0.00 62 1016.4
20260507210547 68 73 2.0 3.0 0.00 0.00 0.00 61 1016.5
20260507210043 68 0 1.0 2.0 0.00 0.00 0.00 62 1016.4
20260507205540 68 57 2.0 3.0 0.00 0.00 0.00 64 1016.4
20260507205037 67 22 1.0 3.0 0.00 0.00 0.00 63 1016.4
20260507204533 67 94 0.0 3.0 0.00 0.00 0.00 63 1016.8
20260507204031 68 83 2.0 2.0 0.00 0.00 0.00 64 1017.4
20260507203528 69 188 2.0 4.0 0.00 0.00 0.00 60 1017.4
20260507203026 69 180 0.0 3.0 0.00 0.00 0.00 60 1017.4
20260507202521 67 182 4.0 4.0 0.00 0.00 0.00 62 1017.3
20260507202018 66 78 0.0 4.0 0.00 0.00 0.00 65 1017.3
20260507201513 67 50 2.0 4.0 0.00 0.00 0.00 64 1017.3
20260507201010 68 79 2.0 3.0 0.00 0.00 0.00 62 1017.5
20260507200505 67 89 0.0 3.0 0.00 0.00 0.00 64 1017.2
20260507200001 68 174 2.0 3.0 0.00 0.00 0.00 61 1017.4
20260507195459 68 60 1.0 4.0 0.00 0.00 0.00 63 1017.7
20260507194956 67 69 2.0 3.0 0.00 0.00 0.00 65 1017.8
20260507194453 66 86 2.0 4.0 0.00 0.00 0.00 64 1017.6
20260507193948 67 92 1.0 3.0 0.00 0.00 0.00 64 1017.6
20260507193446 67 56 0.0 4.0 0.00 0.00 0.00 64 1017.5
20260507192942 67 47 2.0 4.0 0.00 0.00 0.00 65 1017.7
20260507192438 66 49 2.0 4.0 0.00 0.00 0.00 66 1018.0
20260507191936 66 59 2.0 3.0 0.00 0.00 0.00 69 1017.9
20260507191431 66 21 1.0 4.0 0.00 0.00 0.00 67 1018.0
20260507190928 65 71 2.0 4.0 0.00 0.00 0.00 69 1017.9
20260507190426 65 80 1.0 2.0 0.00 0.00 0.00 68 1017.5
20260507185925 66 62 3.0 3.0 0.00 0.00 0.00 69 1017.9
20260507185422 65 65 2.0 4.0 0.00 0.00 0.00 68 1017.8
20260507184918 66 78 2.0 4.0 0.00 0.00 0.00 66 1018.3
20260507184416 66 44 2.0 4.0 0.00 0.00 0.00 67 1017.8
20260507183914 65 71 1.0 3.0 0.00 0.00 0.00 69 1018.1
20260507183410 66 73 3.0 4.0 0.00 0.00 0.00 68 1018.3
20260507182908 66 116 3.0 4.0 0.00 0.00 0.00 66 1018.2
20260507182403 66 45 2.0 3.0 0.00 0.00 0.00 70 1018.7
20260507181900 65 51 0.0 3.0 0.00 0.00 0.00 69 1018.2
20260507181356 64 67 3.0 5.0 0.00 0.00 0.00 69 1018.2
20260507180853 64 127 2.0 3.0 0.00 0.00 0.00 69 1018.2
20260507180349 65 253 1.0 3.0 0.00 0.00 0.00 69 1018.3
20260507175845 64 76 2.0 4.0 0.00 0.00 0.00 72 1018.0
20260507175343 64 59 2.0 3.0 0.00 0.00 0.00 73 1017.9
20260507174840 64 73 3.0 3.0 0.00 0.00 0.00 72 1017.9
20260507174337 64 58 2.0 2.0 0.00 0.00 0.00 72 1017.8
20260507173835 64 80 1.0 2.0 0.00 0.00 0.00 71 1018.3
20260507173331 64 89 1.0 3.0 0.00 0.00 0.00 72 1018.4
20260507172828 64 182 2.0 3.0 0.00 0.00 0.00 72 1018.2
20260507172325 63 83 1.0 3.0 0.00 0.00 0.00 72 1018.2
20260507171820 63 54 2.0 3.0 0.00 0.00 0.00 73 1018.2
20260507171318 63 102 2.0 3.0 0.00 0.00 0.00 74 1018.1
20260507170815 62 30 2.0 3.0 0.00 0.00 0.00 74 1018.1
20260507170311 62 102 2.0 2.0 0.00 0.00 0.00 76 1018.0
20260507165807 62 173 0.0 4.0 0.00 0.00 0.00 75 1018.8
20260507165306 61 66 2.0 6.0 0.00 0.00 0.00 76 1018.3
20260507164759 61 103 2.0 2.0 0.00 0.00 0.00 76 1018.7
20260507164257 61 74 2.0 4.0 0.00 0.00 0.00 77 1018.2
20260507163754 61 78 1.0 3.0 0.00 0.00 0.00 78 1018.3
20260507163251 60 50 2.0 3.0 0.00 0.00 0.00 80 1018.5
20260507162747 60 100 3.0 3.0 0.00 0.00 0.00 78 1018.7
20260507162243 60 79 2.0 3.0 0.00 0.00 0.00 78 1019.3
20260507161740 60 50 2.0 4.0 0.00 0.00 0.00 77 1020.0
20260507161237 60 79 2.0 3.0 0.00 0.00 0.00 78 1019.8
20260507160732 60 146 2.0 3.0 0.00 0.00 0.00 77 1019.7
20260507160229 61 87 0.0 3.0 0.00 0.00 0.00 77 1019.5
20260507155725 60 27 2.0 4.0 0.00 0.00 0.00 78 1019.5
20260507155221 61 88 2.0 3.0 0.00 0.00 0.00 78 1019.1
20260507154718 60 68 2.0 4.0 0.00 0.00 0.00 79 1019.5
20260507154216 60 121 3.0 5.0 0.00 0.00 0.00 79 1019.1
20260507153712 61 81 2.0 2.0 0.00 0.00 0.00 80 1019.4
20260507153209 61 105 2.0 3.0 0.00 0.00 0.00 79 1019.4
20260507152705 60 47 3.0 3.0 0.00 0.00 0.00 80 1019.6
20260507152201 60 114 2.0 2.0 0.00 0.00 0.00 81 1019.1
20260507151657 61 91 1.0 3.0 0.00 0.00 0.00 81 1018.9
20260507151154 60 131 4.0 5.0 0.00 0.00 0.00 81 1019.3
20260507150651 61 59 3.0 3.0 0.00 0.00 0.00 82 1019.1
20260507150148 60 91 2.0 3.0 0.00 0.00 0.00 82 1019.1
20260507145643 60 65 2.0 2.0 0.00 0.00 0.00 82 1019.3
20260507145141 60 68 2.0 3.0 0.00 0.00 0.00 83 1019.7
20260507144637 60 89 2.0 3.0 0.00 0.00 0.00 83 1019.6
20260507144136 60 71 2.0 2.0 0.00 0.00 0.00 83 1019.4
20260507143632 60 98 2.0 4.0 0.00 0.00 0.00 84 1019.6
20260507143129 60 89 1.0 3.0 0.00 0.00 0.00 84 1019.6
20260507142624 60 75 2.0 4.0 0.00 0.00 0.00 84 1019.0
20260507142122 60 133 2.0 3.0 0.00 0.00 0.00 83 1019.1
20260507141618 60 55 2.0 2.0 0.00 0.00 0.00 83 1018.6
20260507141115 60 73 2.0 3.0 0.00 0.00 0.00 84 1018.9
20260507140611 60 83 2.0 2.0 0.00 0.00 0.00 85 1018.7
20260507140109 60 115 2.0 4.0 0.00 0.00 0.00 85 1018.9
20260507135606 60 89 0.0 3.0 0.00 0.00 0.00 85 1018.9
20260507135103 59 110 0.0 3.0 0.00 0.00 0.00 86 1018.6
20260507134559 60 113 3.0 5.0 0.00 0.00 0.00 85 1018.3
20260507134055 60 132 0.0 5.0 0.00 0.00 0.00 85 1018.3
20260507133551 60 60 2.0 5.0 0.00 0.00 0.00 85 1018.5
20260507133049 60 89 2.0 4.0 0.00 0.00 0.00 85 1018.3
20260507132546 60 70 2.0 4.0 0.00 0.00 0.00 86 1018.2
20260507132042 59 100 3.0 4.0 0.00 0.00 0.00 86 1018.4
20260507131539 59 73 2.0 4.0 0.00 0.00 0.00 86 1018.3
20260507131036 59 168 4.0 5.0 0.00 0.00 0.00 86 1018.4
20260507130533 59 103 2.0 3.0 0.00 0.00 0.00 87 1018.5
20260507130031 59 82 1.0 4.0 0.00 0.00 0.00 87 1018.5
20260507125529 59 92 2.0 4.0 0.00 0.00 0.00 86 1018.4
20260507125027 59 47 3.0 4.0 0.00 0.00 0.00 87 1018.4
20260507124523 59 59 2.0 4.0 0.00 0.00 0.00 87 1018.3
20260507124021 59 45 3.0 4.0 0.00 0.00 0.00 87 1018.4
20260507123519 60 56 4.0 4.0 0.00 0.00 0.00 87 1018.4
20260507123015 59 116 4.0 6.0 0.00 0.00 0.00 86 1018.5
20260507122510 60 74 3.0 4.0 0.00 0.00 0.00 86 1018.3
20260507122007 60 70 2.0 4.0 0.00 0.00 0.00 86 1018.1
20260507121502 59 133 2.0 3.0 0.00 0.00 0.00 86 1018.1
20260507120958 60 31 2.0 3.0 0.00 0.00 0.00 86 1017.8
20260507120454 59 49 3.0 5.0 0.00 0.00 0.00 86 1017.6
20260507115951 59 43 3.0 4.0 0.00 0.00 0.00 86 1017.2
20260507115448 59 138 2.0 3.0 0.00 0.00 0.00 86 1017.6
20260507114943 59 86 1.0 3.0 0.00 0.00 0.00 87 1018.0
20260507114440 59 120 3.0 4.0 0.00 0.00 0.00 86 1017.6
20260507113937 59 92 2.0 3.0 0.00 0.00 0.00 87 1017.8
20260507113434 59 29 1.0 3.0 0.00 0.00 0.00 87 1017.5
20260507112932 59 122 1.0 4.0 0.00 0.00 0.00 86 1017.5
20260507112429 59 79 5.0 6.0 0.00 0.00 0.00 86 1017.6
20260507111926 59 82 2.0 4.0 0.00 0.00 0.00 86 1017.2
20260507111423 59 79 2.0 4.0 0.00 0.00 0.00 86 1017.2
20260507110919 59 70 2.0 3.0 0.00 0.00 0.00 87 1017.4
20260507110415 59 103 2.0 3.0 0.00 0.00 0.00 86 1017.2
20260507105913 59 138 1.0 3.0 0.00 0.00 0.00 86 1017.3
20260507105409 59 52 3.0 3.0 0.00 0.00 0.00 86 1017.6
20260507104906 60 62 1.0 3.0 0.00 0.00 0.00 86 1017.7
20260507104402 59 93 2.0 3.0 0.00 0.00 0.00 86 1017.7
20260507103858 60 106 1.0 3.0 0.00 0.00 0.00 86 1017.6
20260507103355 60 135 2.0 3.0 0.00 0.00 0.00 86 1017.3
20260507102851 60 1 1.0 3.0 0.00 0.00 0.00 86 1016.8
20260507102348 60 57 3.0 4.0 0.00 0.00 0.00 86 1016.8
20260507101844 59 67 2.0 4.0 0.00 0.00 0.00 86 1017.2
20260507101344 60 74 2.0 6.0 0.00 0.00 0.00 86 1017.1
20260507100842 60 167 2.0 3.0 0.00 0.00 0.00 85 1016.8
20260507100340 60 63 3.0 4.0 0.00 0.00 0.00 86 1016.9
20260507095838 60 43 2.0 3.0 0.00 0.00 0.00 86 1016.8
20260507095334 60 111 2.0 4.0 0.00 0.00 0.00 85 1016.8
20260507094831 60 86 2.0 5.0 0.00 0.00 0.00 85 1016.8
20260507094327 60 95 2.0 4.0 0.00 0.00 0.00 85 1016.7
20260507093825 60 62 2.0 4.0 0.00 0.00 0.00 85 1016.6
20260507093324 60 68 2.0 3.0 0.00 0.00 0.00 85 1016.8
20260507092821 60 65 2.0 2.0 0.00 0.00 0.00 85 1016.8
20260507092317 60 47 2.0 3.0 0.00 0.00 0.00 84 1017.0
20260507091813 60 92 1.0 3.0 0.00 0.00 0.00 84 1016.8
20260507091311 60 35 2.0 3.0 0.00 0.00 0.00 83 1016.9
20260507090811 60 82 2.0 2.0 0.00 0.00 0.00 84 1016.8
20260507090308 60 98 2.0 3.0 0.00 0.00 0.00 83 1016.6
20260507085805 60 52 3.0 3.0 0.00 0.00 0.00 83 1016.4
20260507085302 60 86 2.0 3.0 0.00 0.00 0.00 83 1016.4
20260507084759 60 64 2.0 4.0 0.00 0.00 0.00 83 1016.5
20260507084255 60 113 2.0 4.0 0.00 0.00 0.00 83 1016.1
20260507083753 61 79 2.0 2.0 0.00 0.00 0.00 83 1016.1
20260507083249 60 101 2.0 2.0 0.00 0.00 0.00 83 1016.4
20260507082745 61 62 2.0 3.0 0.00 0.00 0.00 83 1016.2
20260507082241 61 70 1.0 2.0 0.00 0.00 0.00 83 1016.4
20260507081738 61 67 1.0 2.0 0.00 0.00 0.00 83 1016.0
20260507081234 61 89 0.0 3.0 0.00 0.00 0.00 82 1016.0
20260507080731 61 55 2.0 3.0 0.00 0.00 0.00 83 1015.8
20260507080227 61 93 3.0 3.0 0.00 0.00 0.00 82 1015.7
20260507075722 61 81 0.0 3.0 0.00 0.00 0.00 82 1016.2
20260507075219 61 89 2.0 2.0 0.00 0.00 0.00 82 1015.9
20260507074715 61 48 2.0 3.0 0.00 0.00 0.00 82 1015.5
20260507074214 61 65 1.0 2.0 0.00 0.00 0.00 82 1015.5
20260507073710 61 72 2.0 3.0 0.00 0.00 0.00 81 1015.6
20260507073206 61 76 2.0 2.0 0.00 0.00 0.00 81 1016.0
20260507072705 61 112 2.0 3.0 0.00 0.00 0.00 81 1016.1
20260507072201 61 82 3.0 3.0 0.00 0.00 0.00 81 1015.8
20260507071659 61 71 2.0 3.0 0.00 0.00 0.00 80 1015.8
20260507071155 61 104 1.0 3.0 0.00 0.00 0.00 81 1015.8
20260507070652 61 78 2.0 4.0 0.00 0.00 0.00 80 1015.9
20260507070149 61 85 2.0 3.0 0.00 0.00 0.00 80 1016.2
20260507065645 61 54 3.0 3.0 0.00 0.00 0.00 80 1016.1
20260507065142 61 83 1.0 2.0 0.00 0.00 0.00 80 1015.9
20260507064640 61 80 1.0 4.0 0.00 0.00 0.00 80 1015.8
20260507064138 62 58 2.0 3.0 0.00 0.00 0.00 80 1015.7
20260507063636 62 75 2.0 3.0 0.00 0.00 0.00 80 1015.7
20260507063132 62 242 1.0 3.0 0.00 0.00 0.00 79 1015.3
20260507062629 62 136 0.0 3.0 0.00 0.00 0.00 79 1015.5
20260507062127 62 60 2.0 3.0 0.00 0.00 0.00 80 1016.0
20260507061624 62 82 2.0 2.0 0.00 0.00 0.00 79 1015.9
20260507061122 62 108 2.0 3.0 0.00 0.00 0.00 79 1015.9
20260507060620 62 42 2.0 3.0 0.00 0.00 0.00 79 1015.7
20260507060116 62 62 2.0 3.0 0.00 0.00 0.00 80 1015.6
20260507055612 62 66 1.0 2.0 0.00 0.00 0.00 79 1015.8
20260507055108 62 70 2.0 3.0 0.00 0.00 0.00 79 1016.0
20260507054604 62 141 2.0 3.0 0.00 0.00 0.00 79 1015.9
20260507054101 62 76 2.0 3.0 0.00 0.00 0.00 79 1015.9
20260507053559 62 26 3.0 3.0 0.00 0.00 0.00 79 1015.9
20260507053058 62 107 1.0 2.0 0.00 0.00 0.00 79 1015.7
20260507052555 62 72 1.0 2.0 0.00 0.00 0.00 78 1015.7
20260507052051 62 124 1.0 4.0 0.00 0.00 0.00 79 1015.7
20260507051549 62 77 2.0 2.0 0.00 0.00 0.00 79 1015.6
20260507051046 62 141 2.0 5.0 0.00 0.00 0.00 78 1015.6
20260507050542 62 58 2.0 4.0 0.00 0.00 0.00 79 1015.4
20260507050039 62 81 3.0 3.0 0.00 0.00 0.00 79 1015.6
20260507045536 62 67 2.0 3.0 0.00 0.00 0.00 78 1015.8
20260507045033 62 83 3.0 3.0 0.00 0.00 0.00 79 1015.6
20260507044529 63 180 3.0 3.0 0.00 0.00 0.00 78 1015.6
20260507044026 63 60 2.0 4.0 0.00 0.00 0.00 79 1015.8
20260507043522 63 125 2.0 2.0 0.00 0.00 0.00 79 1015.8
20260507043020 62 51 2.0 3.0 0.00 0.00 0.00 80 1015.8
20260507042515 63 89 2.0 4.0 0.00 0.00 0.00 79 1016.0
20260507042011 63 309 1.0 2.0 0.00 0.00 0.00 80 1015.5
20260507041508 63 48 2.0 3.0 0.00 0.00 0.00 80 1015.4
20260507041005 63 57 2.0 2.0 0.00 0.00 0.00 80 1015.4
20260507040501 63 56 2.0 3.0 0.00 0.00 0.00 80 1015.7
20260507035957 63 86 2.0 3.0 0.00 0.00 0.00 80 1015.8
20260507035454 63 52 2.0 4.0 0.00 0.00 0.00 80 1015.9
20260507034950 63 73 2.0 3.0 0.00 0.00 0.00 80 1015.7
20260507034447 63 128 2.0 3.0 0.00 0.00 0.00 80 1015.7
20260507033945 63 130 1.0 3.0 0.00 0.00 0.00 80 1015.6
20260507033443 63 135 0.0 3.0 0.00 0.00 0.00 79 1015.6
20260507032940 63 47 3.0 3.0 0.00 0.00 0.00 80 1015.5
20260507032437 63 161 0.0 3.0 0.00 0.00 0.00 79 1015.6
20260507031933 63 198 3.0 4.0 0.00 0.00 0.00 79 1015.6
20260507031429 63 92 2.0 3.0 0.00 0.00 0.00 79 1015.8
20260507030926 63 62 2.0 3.0 0.00 0.00 0.00 79 1015.8
20260507030424 63 64 2.0 3.0 0.00 0.00 0.00 79 1015.6
20260507025921 63 94 2.0 4.0 0.00 0.00 0.00 79 1015.5
20260507025418 63 98 0.0 4.0 0.00 0.00 0.00 79 1015.3
20260507024915 63 78 2.0 4.0 0.00 0.00 0.00 79 1015.1
20260507024413 63 89 0.0 4.0 0.00 0.00 0.00 79 1015.1
20260507023908 63 79 2.0 4.0 0.00 0.00 0.00 79 1015.1
20260507023405 64 95 0.0 2.0 0.00 0.00 0.00 79 1014.9
20260507022903 64 63 2.0 4.0 0.00 0.00 0.00 79 1014.8
20260507022359 64 59 2.0 3.0 0.00 0.00 0.00 79 1014.9
20260507021855 64 73 1.0 3.0 0.00 0.00 0.00 78 1014.8
20260507021351 64 155 1.0 3.0 0.00 0.00 0.00 79 1014.6
20260507020849 64 63 3.0 4.0 0.00 0.00 0.00 79 1014.6
20260507020345 64 34 3.0 3.0 0.00 0.00 0.00 78 1014.9
20260507015842 64 119 3.0 3.0 0.00 0.00 0.00 78 1014.5
20260507015340 64 82 1.0 2.0 0.00 0.00 0.00 78 1014.1
20260507014837 64 74 2.0 6.0 0.00 0.00 0.00 79 1014.1
20260507014333 64 60 2.0 2.0 0.00 0.00 0.00 78 1014.1
20260507013830 65 36 3.0 4.0 0.00 0.00 0.00 78 1014.1
20260507013327 64 55 0.0 3.0 0.00 0.00 0.00 78 1014.0
20260507012825 64 84 2.0 3.0 0.00 0.00 0.00 78 1013.9
20260507012320 64 130 2.0 4.0 0.00 0.00 0.00 78 1013.5
20260507011817 65 47 2.0 3.0 0.00 0.00 0.00 77 1013.6
20260507011314 65 69 1.0 3.0 0.00 0.00 0.00 77 1013.5
20260507010814 65 59 2.0 4.0 0.00 0.00 0.00 78 1013.6
20260507010310 65 91 2.0 2.0 0.00 0.00 0.00 77 1013.5
20260507005807 65 64 2.0 2.0 0.00 0.00 0.00 76 1013.8
20260507005305 64 95 0.0 2.0 0.00 0.00 0.00 77 1013.3
20260507004800 64 111 2.0 4.0 0.00 0.00 0.00 77 1013.5
20260507004258 64 61 2.0 5.0 0.00 0.00 0.00 77 1013.2
20260507003754 65 57 3.0 4.0 0.00 0.00 0.00 77 1013.3
20260507003249 65 92 2.0 3.0 0.00 0.00 0.00 76 1013.3
20260507002745 65 54 3.0 3.0 0.00 0.00 0.00 76 1013.0
20260507002241 65 12 0.0 2.0 0.00 0.00 0.00 76 1013.2
20260507001738 65 44 1.0 3.0 0.00 0.00 0.00 76 1013.3
20260507001236 64 88 2.0 3.0 0.00 0.00 0.00 77 1013.1
20260507000732 65 70 2.0 4.0 0.00 0.00 0.00 76 1013.2
20260507000228 65 68 2.0 3.0 0.00 0.00 0.00 76 1013.1
20260506235725 65 35 3.0 3.0 0.00 0.00 0.00 76 1013.0
20260506235220 65 80 2.0 3.0 0.00 0.00 0.00 76 1012.9
20260506234717 65 96 2.0 6.0 0.00 0.00 0.00 76 1013.2
20260506234215 65 101 1.0 3.0 0.00 0.00 0.00 75 1013.0
20260506233712 65 64 1.0 2.0 0.00 0.00 0.00 75 1012.9
20260506233209 65 38 3.0 4.0 0.00 0.00 0.00 75 1013.0
20260506232706 65 114 3.0 4.0 0.00 0.00 0.00 75 1013.0
20260506232200 66 74 3.0 3.0 0.00 0.00 0.00 75 1012.8
20260506231658 66 35 2.0 4.0 0.00 0.00 0.00 73 1012.9
20260506231156 66 88 2.0 3.0 0.00 0.00 0.00 74 1012.7
20260506230652 66 25 1.0 2.0 0.00 0.00 0.00 74 1012.9
20260506230149 65 88 1.0 3.0 0.00 0.00 0.00 74 1013.1
20260506225646 65 55 3.0 3.0 0.00 0.00 0.00 74 1012.9
20260506225143 65 186 1.0 3.0 0.00 0.00 0.00 75 1012.8
20260506224639 65 39 2.0 3.0 0.00 0.00 0.00 74 1012.9
20260506224136 65 95 2.0 4.0 0.00 0.00 0.00 75 1012.8
20260506223632 65 109 1.0 4.0 0.00 0.00 0.00 75 1013.0
20260506223128 65 72 2.0 4.0 0.00 0.00 0.00 75 1012.8
20260506222625 67 17 3.0 5.0 0.00 0.00 0.00 73 1012.7
20260506222122 66 124 0.0 4.0 0.00 0.00 0.00 73 1012.8
20260506221619 67 45 3.0 4.0 0.00 0.00 0.00 72 1012.6
20260506221117 66 119 2.0 4.0 0.00 0.00 0.00 72 1013.0
20260506220614 67 120 3.0 4.0 0.00 0.00 0.00 72 1012.9
20260506220109 68 9 5.0 5.0 0.00 0.00 0.00 71 1012.8
20260506215606 68 75 2.0 5.0 0.00 0.00 0.00 70 1012.8
20260506215101 68 103 0.0 2.0 0.00 0.00 0.00 70 1012.7